Time,TemperatureF,DewpointF,PressureIn,WindDirection,WindDirectionDegrees,WindSpeedMPH,WindSpeedGustMPH,Humidity,HourlyPrecipIn,Conditions,Clouds,dailyrainin,SoftwareType,DateUTC
2013-04-25 00:00:00,52.8,51.4,29.90,SSW,210,3.3,6.0,94,0.00,,,0.00,meteo_script,2013-04-25 04:00:00,
2013-04-25 00:05:00,52.8,51.4,29.89,SSW,208,3.5,9.0,95,0.00,,,0.00,meteo_script,2013-04-25 04:05:00,
2013-04-25 00:10:00,52.8,51.4,29.89,SSW,210,3.9,8.0,95,0.00,,,0.00,meteo_script,2013-04-25 04:10:00,
2013-04-25 00:20:00,52.6,51.5,29.90,SW,225,3.7,11.0,96,0.00,,,0.00,meteo_script,2013-04-25 04:20:00,
2013-04-25 00:25:00,52.6,51.5,29.90,South,189,3.6,10.0,96,0.00,,,0.00,meteo_script,2013-04-25 04:25:00,
2013-04-25 00:30:00,52.5,51.5,29.89,SSW,207,3.8,12.0,96,0.00,,,0.00,meteo_script,2013-04-25 04:30:00,
2013-04-25 00:40:00,52.3,51.5,29.89,SSW,197,4.1,9.0,97,0.00,,,0.00,meteo_script,2013-04-25 04:40:00,
2013-04-25 00:45:00,52.3,51.8,29.89,SSW,203,4.1,9.0,98,0.00,,,0.00,meteo_script,2013-04-25 04:45:00,
2013-04-25 00:50:00,52.2,51.5,29.89,SSW,202,3.4,10.0,97,0.00,,,0.00,meteo_script,2013-04-25 04:50:00,
2013-04-25 01:00:00,52.0,51.7,29.88,SW,220,3.4,11.0,99,0.00,,,0.00,meteo_script,2013-04-25 05:00:00,
2013-04-25 01:05:00,52.0,51.7,29.88,SSW,200,3.7,10.0,99,0.00,,,0.00,meteo_script,2013-04-25 05:05:00,
2013-04-25 01:10:00,52.0,51.9,29.88,SSW,201,3.8,7.0,99,0.00,,,0.00,meteo_script,2013-04-25 05:10:00,
2013-04-25 01:15:00,52.0,52.0,29.88,South,181,4.0,9.0,100,0.00,,,0.00,meteo_script,2013-04-25 05:15:00,
2013-04-25 01:20:00,52.1,52.0,29.88,SSW,203,3.6,8.0,100,0.00,,,0.00,meteo_script,2013-04-25 05:20:00,
2013-04-25 01:25:00,52.0,52.0,29.88,SSW,198,2.5,5.0,100,0.00,,,0.00,meteo_script,2013-04-25 05:25:00,
2013-04-25 01:30:00,52.1,52.1,29.87,SSW,205,2.9,11.0,100,0.00,,,0.00,meteo_script,2013-04-25 05:30:00,
2013-04-25 01:40:00,52.2,52.2,29.89,SSW,212,2.8,10.0,100,0.00,,,0.00,meteo_script,2013-04-25 05:40:00,
2013-04-25 01:45:00,52.4,52.4,29.88,SSW,207,3.2,10.0,100,0.00,,,0.00,meteo_script,2013-04-25 05:45:00,
2013-04-25 01:50:00,52.4,52.4,29.88,SW,216,3.4,10.0,100,0.00,,,0.00,meteo_script,2013-04-25 05:50:00,
2013-04-25 02:00:00,52.6,52.6,29.88,SSW,205,3.2,9.0,100,0.00,,,0.00,meteo_script,2013-04-25 06:00:00,
2013-04-25 02:05:00,52.8,52.8,29.89,SW,229,2.0,7.0,100,0.00,,,0.00,meteo_script,2013-04-25 06:05:00,
2013-04-25 02:10:00,52.9,52.9,29.88,SSW,194,1.8,8.0,100,0.00,,,0.00,meteo_script,2013-04-25 06:10:00,
2013-04-25 02:15:00,53.1,53.1,29.88,SSW,203,2.3,6.0,100,0.00,,,0.00,meteo_script,2013-04-25 06:15:00,
2013-04-25 02:25:00,53.4,53.4,29.88,South,185,3.1,10.0,100,0.00,,,0.00,meteo_script,2013-04-25 06:25:00,
2013-04-25 02:30:00,53.6,53.6,29.87,SSW,193,3.6,9.0,100,0.00,,,0.00,meteo_script,2013-04-25 06:30:00,
2013-04-25 02:35:00,53.7,53.7,29.87,SSW,194,3.4,8.0,100,0.00,,,0.00,meteo_script,2013-04-25 06:35:00,
2013-04-25 02:45:00,53.9,53.9,29.87,SW,228,2.5,8.0,100,0.00,,,0.00,meteo_script,2013-04-25 06:45:00,
2013-04-25 02:50:00,54.0,54.0,29.88,SSW,210,3.1,8.0,100,0.00,,,0.00,meteo_script,2013-04-25 06:50:00,
2013-04-25 02:55:00,54.1,54.1,29.88,WSW,237,3.1,10.0,100,0.00,,,0.00,meteo_script,2013-04-25 06:55:00,
2013-04-25 03:05:00,54.3,54.3,29.89,WSW,252,4.0,11.0,100,0.00,,,0.00,meteo_script,2013-04-25 07:05:00,
2013-04-25 03:10:00,54.4,54.4,29.90,SW,218,3.2,13.0,100,0.00,,,0.00,meteo_script,2013-04-25 07:10:00,
2013-04-25 03:15:00,54.4,54.4,29.90,SW,225,3.9,14.0,100,0.00,,,0.00,meteo_script,2013-04-25 07:15:00,
2013-04-25 03:25:00,54.5,54.5,29.90,SSW,203,4.2,12.0,100,0.00,,,0.00,meteo_script,2013-04-25 07:25:00,
2013-04-25 03:30:00,54.5,54.5,29.91,WSW,246,3.4,10.0,100,0.00,,,0.00,meteo_script,2013-04-25 07:30:00,
2013-04-25 03:35:00,54.6,54.6,29.90,SSW,197,2.7,7.0,100,0.00,,,0.00,meteo_script,2013-04-25 07:35:00,
2013-04-25 03:45:00,54.5,54.5,29.92,SW,230,3.5,4.0,100,0.00,,,0.00,meteo_script,2013-04-25 07:45:00,
2013-04-25 03:50:00,54.4,54.4,29.90,West,261,1.8,5.0,100,0.00,,,0.00,meteo_script,2013-04-25 07:50:00,
2013-04-25 03:55:00,54.2,54.2,29.91,WSW,254,1.1,3.0,100,0.00,,,0.00,meteo_script,2013-04-25 07:55:00,
2013-04-25 04:05:00,53.8,53.8,29.91,WSW,241,0.7,4.0,100,0.00,,,0.00,meteo_script,2013-04-25 08:05:00,
2013-04-25 04:10:00,53.7,53.7,29.91,WSW,241,0.5,2.0,100,0.00,,,0.00,meteo_script,2013-04-25 08:10:00,
2013-04-25 04:15:00,53.6,53.6,29.92,WSW,241,0.4,2.0,100,0.00,,,0.00,meteo_script,2013-04-25 08:15:00,
2013-04-25 04:25:00,53.4,53.4,29.92,WSW,244,0.2,5.0,100,0.00,,,0.00,meteo_script,2013-04-25 08:25:00,
2013-04-25 04:30:00,53.3,53.3,29.93,WNW,289,0.3,3.0,100,0.00,,,0.00,meteo_script,2013-04-25 08:30:00,
2013-04-25 04:35:00,53.2,53.2,29.93,WNW,302,0.3,2.0,100,0.00,,,0.00,meteo_script,2013-04-25 08:35:00,
2013-04-25 04:45:00,53.1,53.1,29.94,WNW,302,0.7,3.0,100,0.00,,,0.00,meteo_script,2013-04-25 08:45:00,
2013-04-25 04:55:00,53.0,53.0,29.95,WNW,299,2.3,7.0,100,0.00,,,0.00,meteo_script,2013-04-25 08:55:00,
2013-04-25 05:00:00,52.8,52.8,29.96,WNW,288,3.1,6.0,100,0.00,,,0.00,meteo_script,2013-04-25 09:00:00,
2013-04-25 05:05:00,52.6,52.6,29.97,NW,313,3.9,10.0,100,0.00,,,0.00,meteo_script,2013-04-25 09:05:00,
2013-04-25 05:10:00,51.6,51.3,29.97,NW,321,4.8,13.0,99,0.00,,,0.00,meteo_script,2013-04-25 09:10:00,
2013-04-25 05:20:00,50.2,49.6,29.98,NW,305,3.3,7.0,97,0.00,,,0.00,meteo_script,2013-04-25 09:20:00,
2013-04-25 05:25:00,49.9,49.4,30.00,WNW,303,2.2,6.0,98,0.00,,,0.00,meteo_script,2013-04-25 09:25:00,
2013-04-25 05:30:00,49.6,48.5,30.01,NW,305,2.2,7.0,96,0.00,,,0.00,meteo_script,2013-04-25 09:30:00,
2013-04-25 05:40:00,49.0,47.3,30.01,NW,311,2.9,7.0,93,0.00,,,0.00,meteo_script,2013-04-25 09:40:00,
2013-04-25 05:45:00,48.8,46.3,30.01,WNW,298,3.7,10.0,91,0.00,,,0.00,meteo_script,2013-04-25 09:45:00,
2013-04-25 05:50:00,48.6,46.1,30.01,WNW,286,3.9,7.0,91,0.00,,,0.00,meteo_script,2013-04-25 09:50:00,
2013-04-25 06:00:00,48.3,45.7,30.02,WNW,297,1.9,5.0,91,0.00,,,0.00,meteo_script,2013-04-25 10:00:00,
2013-04-25 06:05:00,48.0,45.2,30.02,WNW,295,2.2,6.0,90,0.00,,,0.00,meteo_script,2013-04-25 10:05:00,
2013-04-25 06:10:00,47.7,44.6,30.02,West,281,2.5,5.0,89,0.00,,,0.00,meteo_script,2013-04-25 10:10:00,
2013-04-25 06:20:00,47.3,44.3,30.04,WNW,291,1.5,4.0,89,0.00,,,0.00,meteo_script,2013-04-25 10:20:00,
2013-04-25 06:25:00,47.2,44.1,30.03,WNW,294,1.6,5.0,89,0.00,,,0.00,meteo_script,2013-04-25 10:25:00,
2013-04-25 06:30:00,47.0,43.9,30.04,WNW,294,1.3,3.0,89,0.00,,,0.00,meteo_script,2013-04-25 10:30:00,
2013-04-25 06:40:00,46.9,44.1,30.05,West,267,0.8,4.0,90,0.00,,,0.00,meteo_script,2013-04-25 10:40:00,
2013-04-25 06:45:00,47.0,44.2,30.06,West,271,0.7,2.0,89,0.00,,,0.00,meteo_script,2013-04-25 10:45:00,
2013-04-25 06:50:00,47.3,44.2,30.06,WNW,295,0.9,5.0,89,0.00,,,0.00,meteo_script,2013-04-25 10:50:00,
2013-04-25 07:00:00,47.4,44.0,30.07,WNW,299,0.7,4.0,88,0.00,,,0.00,meteo_script,2013-04-25 11:00:00,
2013-04-25 07:05:00,47.4,44.0,30.06,North,354,0.8,4.0,88,0.00,,,0.00,meteo_script,2013-04-25 11:05:00,
2013-04-25 07:10:00,47.6,44.3,30.07,NW,312,0.8,3.0,88,0.00,,,0.00,meteo_script,2013-04-25 11:10:00,
2013-04-25 07:15:00,47.6,44.5,30.08,NW,312,0.6,2.0,88,0.00,,,0.00,meteo_script,2013-04-25 11:15:00,
2013-04-25 07:20:00,47.7,43.6,30.07,NNW,332,0.8,5.0,85,0.00,,,0.00,meteo_script,2013-04-25 11:20:00,
2013-04-25 07:25:00,47.5,42.6,30.08,NW,319,1.6,7.0,82,0.00,,,0.00,meteo_script,2013-04-25 11:25:00,
2013-04-25 07:35:00,47.6,43.3,30.07,NW,318,1.2,4.0,85,0.00,,,0.00,meteo_script,2013-04-25 11:35:00,
2013-04-25 07:40:00,47.7,43.4,30.07,NW,326,0.8,2.0,85,0.00,,,0.00,meteo_script,2013-04-25 11:40:00,
2013-04-25 07:45:00,47.8,43.1,30.08,NW,318,0.8,4.0,83,0.00,,,0.00,meteo_script,2013-04-25 11:45:00,
2013-04-25 07:55:00,47.9,42.0,30.09,NW,326,2.2,7.0,79,0.00,,,0.00,meteo_script,2013-04-25 11:55:00,
2013-04-25 08:00:00,47.9,41.9,30.09,NNW,327,2.9,8.0,79,0.00,,,0.00,meteo_script,2013-04-25 12:00:00,
2013-04-25 08:10:00,47.9,41.8,30.10,NW,322,1.7,6.0,79,0.00,,,0.00,meteo_script,2013-04-25 12:10:00,
2013-04-25 08:15:00,47.9,41.7,30.09,NW,325,1.7,5.0,79,0.00,,,0.00,meteo_script,2013-04-25 12:15:00,
2013-04-25 08:20:00,48.2,42.3,30.09,NW,325,1.3,4.0,80,0.00,,,0.00,meteo_script,2013-04-25 12:20:00,
2013-04-25 08:30:00,48.3,42.5,30.09,WNW,302,0.8,5.0,80,0.00,,,0.00,meteo_script,2013-04-25 12:30:00,
2013-04-25 08:35:00,48.5,42.5,30.10,NW,309,1.0,4.0,79,0.00,,,0.00,meteo_script,2013-04-25 12:35:00,
2013-04-25 08:40:00,49.1,42.6,30.11,WNW,284,0.8,3.0,78,0.00,,,0.00,meteo_script,2013-04-25 12:40:00,
2013-04-25 08:45:00,49.8,43.4,30.10,NW,304,0.9,4.0,78,0.00,,,0.00,meteo_script,2013-04-25 12:45:00,
2013-04-25 08:55:00,50.1,42.8,30.10,WNW,299,1.3,3.0,75,0.00,,,0.00,meteo_script,2013-04-25 12:55:00,
2013-04-25 09:05:00,51.3,42.6,30.10,WNW,287,3.0,9.0,72,0.00,,,0.00,meteo_script,2013-04-25 13:05:00,
2013-04-25 09:10:00,52.2,43.4,30.11,WNW,294,2.7,5.0,71,0.00,,,0.00,meteo_script,2013-04-25 13:10:00,
2013-04-25 09:20:00,53.5,43.7,30.10,NW,316,2.2,6.0,69,0.00,,,0.00,meteo_script,2013-04-25 13:20:00,
2013-04-25 09:25:00,54.2,43.7,30.11,NW,322,1.8,4.0,67,0.00,,,0.00,meteo_script,2013-04-25 13:25:00,
2013-04-25 09:30:00,54.9,44.3,30.11,WNW,293,1.7,4.0,67,0.00,,,0.00,meteo_script,2013-04-25 13:30:00,
2013-04-25 09:40:00,55.6,44.1,30.11,NNW,328,1.7,6.0,65,0.00,,,0.00,meteo_script,2013-04-25 13:40:00,
2013-04-25 09:45:00,55.6,43.1,30.12,NW,314,1.8,6.0,62,0.00,,,0.00,meteo_script,2013-04-25 13:45:00,
2013-04-25 09:50:00,55.5,43.0,30.12,NNW,328,2.3,8.0,62,0.00,,,0.00,meteo_script,2013-04-25 13:50:00,
2013-04-25 10:00:00,56.3,43.1,30.12,NNW,328,2.3,6.0,61,0.00,,,0.00,meteo_script,2013-04-25 14:00:00,
2013-04-25 10:05:00,57.3,43.8,30.12,NW,319,2.3,6.0,60,0.00,,,0.00,meteo_script,2013-04-25 14:05:00,
2013-04-25 10:15:00,59.2,45.3,30.12,NW,314,1.7,4.0,59,0.00,,,0.00,meteo_script,2013-04-25 14:15:00,
2013-04-25 10:20:00,60.7,46.3,30.12,West,281,1.5,4.0,59,0.00,,,0.00,meteo_script,2013-04-25 14:20:00,
2013-04-25 10:25:00,61.7,45.3,30.12,NW,313,2.5,7.0,54,0.00,,,0.00,meteo_script,2013-04-25 14:25:00,
2013-04-25 10:35:00,62.8,46.2,30.12,NW,305,2.5,6.0,54,0.00,,,0.00,meteo_script,2013-04-25 14:35:00,
2013-04-25 10:40:00,63.5,46.3,30.12,NW,321,2.4,6.0,53,0.00,,,0.00,meteo_script,2013-04-25 14:40:00,
2013-04-25 10:50:00,64.4,45.9,30.12,NW,317,2.5,5.0,51,0.00,,,0.00,meteo_script,2013-04-25 14:50:00,
2013-04-25 10:55:00,65.0,46.9,30.12,WNW,290,2.7,7.0,52,0.00,,,0.00,meteo_script,2013-04-25 14:55:00,
2013-04-25 11:05:00,66.6,47.9,30.12,WNW,289,2.4,5.0,50,0.00,,,0.00,meteo_script,2013-04-25 15:05:00,
2013-04-25 11:10:00,67.2,47.7,30.13,WNW,294,2.7,7.0,49,0.00,,,0.00,meteo_script,2013-04-25 15:10:00,
2013-04-25 11:20:00,67.6,46.7,30.13,WNW,290,2.0,4.0,47,0.00,,,0.00,meteo_script,2013-04-25 15:20:00,
2013-04-25 11:25:00,67.6,45.9,30.13,North,351,2.0,4.0,45,0.00,,,0.00,meteo_script,2013-04-25 15:25:00,
2013-04-25 11:30:00,67.7,47.4,30.14,WNW,285,2.0,5.0,48,0.00,,,0.00,meteo_script,2013-04-25 15:30:00,
2013-04-25 11:40:00,68.2,45.7,30.14,NW,326,2.6,6.0,44,0.00,,,0.00,meteo_script,2013-04-25 15:40:00,
2013-04-25 11:45:00,68.6,46.4,30.14,NNW,330,2.2,5.0,45,0.00,,,0.00,meteo_script,2013-04-25 15:45:00,
2013-04-25 11:55:00,67.5,46.8,30.14,WNW,288,2.5,6.0,47,0.00,,,0.00,meteo_script,2013-04-25 15:55:00,
2013-04-25 12:05:00,68.8,46.2,30.14,NW,325,2.7,5.0,44,0.00,,,0.00,meteo_script,2013-04-25 16:05:00,
2013-04-25 12:15:00,68.9,46.7,30.14,NW,319,2.8,5.0,45,0.00,,,0.00,meteo_script,2013-04-25 16:15:00,
2013-04-25 12:20:00,69.6,46.8,30.14,NW,321,2.1,5.0,44,0.00,,,0.00,meteo_script,2013-04-25 16:20:00,
2013-04-25 12:30:00,70.2,46.9,30.15,WNW,290,2.2,5.0,43,0.00,,,0.00,meteo_script,2013-04-25 16:30:00,
2013-04-25 12:40:00,70.4,46.9,30.14,West,259,2.1,4.0,43,0.00,,,0.00,meteo_script,2013-04-25 16:40:00,
2013-04-25 12:45:00,69.8,46.0,30.15,NW,305,2.0,5.0,42,0.00,,,0.00,meteo_script,2013-04-25 16:45:00,
2013-04-25 12:55:00,70.5,47.1,30.15,WNW,295,2.5,5.0,43,0.00,,,0.00,meteo_script,2013-04-25 16:55:00,
2013-04-25 13:00:00,70.9,45.7,30.15,WNW,282,1.6,4.0,40,0.00,,,0.00,meteo_script,2013-04-25 17:00:00,
2013-04-25 13:05:00,70.8,46.5,30.15,NW,307,1.5,3.0,41,0.00,,,0.00,meteo_script,2013-04-25 17:05:00,
2013-04-25 13:10:00,70.2,44.5,30.15,North,359,2.0,5.0,39,0.00,,,0.00,meteo_script,2013-04-25 17:10:00,
2013-04-25 13:20:00,70.9,46.1,30.15,NW,317,2.7,6.0,41,0.00,,,0.00,meteo_script,2013-04-25 17:20:00,
2013-04-25 13:30:00,69.8,45.6,30.15,WNW,290,2.0,5.0,41,0.00,,,0.00,meteo_script,2013-04-25 17:30:00,
2013-04-25 13:35:00,70.8,46.5,30.15,NW,306,2.3,5.0,41,0.00,,,0.00,meteo_script,2013-04-25 17:35:00,
2013-04-25 13:40:00,71.2,46.0,30.15,WNW,293,2.4,5.0,40,0.00,,,0.00,meteo_script,2013-04-25 17:40:00,
2013-04-25 13:50:00,71.2,46.7,30.15,WNW,287,2.4,5.0,41,0.00,,,0.00,meteo_script,2013-04-25 17:50:00,
2013-04-25 13:55:00,71.0,43.7,30.15,NW,315,2.2,6.0,37,0.00,,,0.00,meteo_script,2013-04-25 17:55:00,
2013-04-25 14:05:00,72.1,46.4,30.14,NW,318,1.6,4.0,40,0.00,,,0.00,meteo_script,2013-04-25 18:05:00,
2013-04-25 14:10:00,72.4,46.7,30.15,WSW,252,2.3,5.0,39,0.00,,,0.00,meteo_script,2013-04-25 18:10:00,
2013-04-25 14:15:00,72.2,45.0,30.15,NW,312,2.7,5.0,37,0.00,,,0.00,meteo_script,2013-04-25 18:15:00,
2013-04-25 14:25:00,71.6,45.5,30.15,WNW,286,2.1,4.0,39,0.00,,,0.00,meteo_script,2013-04-25 18:25:00,
2013-04-25 14:30:00,72.2,45.7,30.15,WNW,294,2.1,5.0,38,0.00,,,0.00,meteo_script,2013-04-25 18:30:00,
2013-04-25 14:40:00,72.6,44.7,30.15,NW,314,1.8,5.0,36,0.00,,,0.00,meteo_script,2013-04-25 18:40:00,
2013-04-25 14:45:00,72.3,45.0,30.15,WNW,300,1.9,6.0,37,0.00,,,0.00,meteo_script,2013-04-25 18:45:00,
2013-04-25 14:50:00,71.7,43.2,30.15,NW,323,1.6,4.0,35,0.00,,,0.00,meteo_script,2013-04-25 18:50:00,
2013-04-25 15:00:00,71.7,41.6,30.15,NW,316,1.7,4.0,33,0.00,,,0.00,meteo_script,2013-04-25 19:00:00,
2013-04-25 15:05:00,71.6,42.5,30.14,WNW,292,1.6,5.0,35,0.00,,,0.00,meteo_script,2013-04-25 19:05:00,
2013-04-25 15:10:00,71.3,41.6,30.14,WSW,247,2.1,8.0,34,0.00,,,0.00,meteo_script,2013-04-25 19:10:00,
2013-04-25 15:20:00,70.9,39.6,30.14,North,355,2.0,6.0,31,0.00,,,0.00,meteo_script,2013-04-25 19:20:00,
2013-04-25 15:25:00,70.6,41.6,30.14,WSW,257,2.4,5.0,35,0.00,,,0.00,meteo_script,2013-04-25 19:25:00,
2013-04-25 15:30:00,70.5,39.0,30.15,North,353,2.1,5.0,31,0.00,,,0.00,meteo_script,2013-04-25 19:30:00,
2013-04-25 15:40:00,70.0,40.5,30.14,SSW,213,2.2,6.0,34,0.00,,,0.00,meteo_script,2013-04-25 19:40:00,
2013-04-25 15:45:00,69.8,41.7,30.15,West,260,2.2,5.0,36,0.00,,,0.00,meteo_script,2013-04-25 19:45:00,
2013-04-25 15:55:00,68.7,40.8,30.15,SSW,212,1.7,5.0,36,0.00,,,0.00,meteo_script,2013-04-25 19:55:00,
2013-04-25 16:05:00,68.5,40.1,30.15,West,270,0.7,3.0,35,0.00,,,0.00,meteo_script,2013-04-25 20:05:00,
2013-04-25 16:15:00,68.4,40.5,30.15,NW,312,2.1,5.0,36,0.00,,,0.00,meteo_script,2013-04-25 20:15:00,
2013-04-25 16:20:00,67.5,37.9,30.15,NNE,15,2.0,4.0,33,0.00,,,0.00,meteo_script,2013-04-25 20:20:00,
2013-04-25 16:25:00,66.8,38.3,30.16,North,11,1.2,3.0,35,0.00,,,0.00,meteo_script,2013-04-25 20:25:00,
2013-04-25 16:30:00,67.0,38.9,30.16,NNW,328,0.9,3.0,35,0.00,,,0.00,meteo_script,2013-04-25 20:30:00,
2013-04-25 16:40:00,67.0,40.0,30.16,WNW,300,1.1,4.0,37,0.00,,,0.00,meteo_script,2013-04-25 20:40:00,
2013-04-25 16:45:00,67.0,40.2,30.16,WNW,298,0.8,2.0,37,0.00,,,0.00,meteo_script,2013-04-25 20:45:00,
2013-04-25 16:55:00,66.3,40.2,30.16,WNW,302,1.5,5.0,38,0.00,,,0.00,meteo_script,2013-04-25 20:55:00,
2013-04-25 17:00:00,66.1,40.3,30.17,WNW,302,1.8,4.0,38,0.00,,,0.00,meteo_script,2013-04-25 21:00:00,
2013-04-25 17:05:00,65.7,39.4,30.17,WNW,302,1.9,4.0,38,0.00,,,0.00,meteo_script,2013-04-25 21:05:00,
2013-04-25 17:15:00,65.0,37.5,30.17,WNW,302,1.3,4.0,36,0.00,,,0.00,meteo_script,2013-04-25 21:15:00,
2013-04-25 17:20:00,64.8,39.1,30.17,WNW,302,1.4,3.0,38,0.00,,,0.00,meteo_script,2013-04-25 21:20:00,
2013-04-25 17:25:00,64.6,38.3,30.18,WNW,302,1.4,4.0,37,0.00,,,0.00,meteo_script,2013-04-25 21:25:00,
2013-04-25 17:35:00,64.1,38.3,30.18,WNW,288,1.4,4.0,38,0.00,,,0.00,meteo_script,2013-04-25 21:35:00,
2013-04-25 17:40:00,64.0,38.1,30.18,WNW,288,1.3,3.0,38,0.00,,,0.00,meteo_script,2013-04-25 21:40:00,
2013-04-25 17:45:00,63.7,37.7,30.18,WNW,288,1.0,3.0,38,0.00,,,0.00,meteo_script,2013-04-25 21:45:00,
2013-04-25 17:55:00,63.3,36.4,30.18,NW,323,1.1,5.0,36,0.00,,,0.00,meteo_script,2013-04-25 21:55:00,
2013-04-25 18:00:00,63.0,38.0,30.18,NW,323,1.1,3.0,39,0.00,,,0.00,meteo_script,2013-04-25 22:00:00,
2013-04-25 18:10:00,62.3,36.2,30.19,NW,323,0.4,1.0,37,0.00,,,0.00,meteo_script,2013-04-25 22:10:00,
2013-04-25 18:20:00,61.7,36.6,30.19,NW,304,1.0,2.0,39,0.00,,,0.00,meteo_script,2013-04-25 22:20:00,
2013-04-25 18:25:00,61.7,37.2,30.19,NW,304,0.6,2.0,40,0.00,,,0.00,meteo_script,2013-04-25 22:25:00,
2013-04-25 18:35:00,61.1,35.9,30.20,WNW,301,0.5,3.0,38,0.00,,,0.00,meteo_script,2013-04-25 22:35:00,
2013-04-25 18:40:00,60.8,36.3,30.20,WNW,301,0.5,2.0,39,0.00,,,0.00,meteo_script,2013-04-25 22:40:00,
2013-04-25 18:45:00,60.6,36.8,30.20,WNW,301,0.4,2.0,41,0.00,,,0.00,meteo_script,2013-04-25 22:45:00,
2013-04-25 18:55:00,59.9,36.2,30.20,WNW,301,0.6,3.0,41,0.00,,,0.00,meteo_script,2013-04-25 22:55:00,
2013-04-25 19:00:00,59.7,35.0,30.21,North,0,0.4,2.0,39,0.00,,,0.00,meteo_script,2013-04-25 23:00:00,
2013-04-25 19:05:00,59.3,34.9,30.21,WNW,301,0.1,1.0,39,0.00,,,0.00,meteo_script,2013-04-25 23:05:00,
2013-04-25 19:15:00,58.5,33.5,30.21,North,0,0.1,1.0,38,0.00,,,0.00,meteo_script,2013-04-25 23:15:00,
2013-04-25 19:20:00,57.9,34.3,30.21,WNW,301,0.0,1.0,41,0.00,,,0.00,meteo_script,2013-04-25 23:20:00,
2013-04-25 19:25:00,57.0,34.1,30.22,WNW,301,0.1,2.0,42,0.00,,,0.00,meteo_script,2013-04-25 23:25:00,
2013-04-25 19:35:00,55.6,33.5,30.23,North,0,0.1,1.0,43,0.00,,,0.00,meteo_script,2013-04-25 23:35:00,
2013-04-25 19:40:00,55.1,33.5,30.23,North,0,0.0,1.0,44,0.00,,,0.00,meteo_script,2013-04-25 23:40:00,
2013-04-25 19:50:00,54.0,32.9,30.23,WNW,301,0.1,1.0,44,0.00,,,0.00,meteo_script,2013-04-25 23:50:00,
2013-04-25 20:00:00,53.1,32.7,30.23,North,0,0.0,1.0,45,0.00,,,0.00,meteo_script,2013-04-26 00:00:00,
2013-04-25 20:10:00,52.3,32.1,30.24,North,0,0.0,0.0,46,0.00,,,0.00,meteo_script,2013-04-26 00:10:00,
2013-04-25 20:15:00,52.0,31.9,30.24,North,0,0.0,0.0,46,0.00,,,0.00,meteo_script,2013-04-26 00:15:00,
2013-04-25 20:20:00,51.8,32.2,30.24,North,0,0.0,0.0,47,0.00,,,0.00,meteo_script,2013-04-26 00:20:00,
2013-04-25 20:30:00,51.1,32.3,30.25,North,0,0.0,0.0,48,0.00,,,0.00,meteo_script,2013-04-26 00:30:00,
2013-04-25 20:35:00,50.8,32.1,30.25,North,0,0.0,0.0,48,0.00,,,0.00,meteo_script,2013-04-26 00:35:00,
2013-04-25 20:40:00,50.5,32.1,30.26,North,0,0.0,0.0,49,0.00,,,0.00,meteo_script,2013-04-26 00:40:00,
2013-04-25 20:50:00,50.3,31.9,30.26,North,0,0.0,0.0,49,0.00,,,0.00,meteo_script,2013-04-26 00:50:00,
2013-04-25 20:55:00,50.2,31.8,30.26,North,0,0.0,0.0,49,0.00,,,0.00,meteo_script,2013-04-26 00:55:00,
2013-04-25 21:00:00,50.0,32.2,30.26,North,0,0.0,0.0,50,0.00,,,0.00,meteo_script,2013-04-26 01:00:00,
2013-04-25 21:10:00,49.4,31.4,30.27,North,0,0.0,0.0,49,0.00,,,0.00,meteo_script,2013-04-26 01:10:00,
2013-04-25 21:15:00,49.3,30.9,30.27,North,0,0.0,0.0,49,0.00,,,0.00,meteo_script,2013-04-26 01:15:00,
2013-04-25 21:20:00,49.1,31.3,30.27,North,0,0.0,0.0,50,0.00,,,0.00,meteo_script,2013-04-26 01:20:00,
2013-04-25 21:30:00,49.0,31.7,30.28,North,0,0.0,0.0,50,0.00,,,0.00,meteo_script,2013-04-26 01:30:00,
2013-04-25 21:35:00,49.0,31.6,30.28,North,0,0.0,0.0,50,0.00,,,0.00,meteo_script,2013-04-26 01:35:00,
2013-04-25 21:45:00,48.7,30.9,30.28,North,0,0.0,0.0,50,0.00,,,0.00,meteo_script,2013-04-26 01:45:00,
2013-04-25 21:50:00,48.6,30.8,30.29,North,0,0.0,0.0,50,0.00,,,0.00,meteo_script,2013-04-26 01:50:00,
2013-04-25 22:00:00,48.5,31.3,30.29,North,0,0.0,0.0,51,0.00,,,0.00,meteo_script,2013-04-26 02:00:00,
2013-04-25 22:05:00,48.5,31.7,30.29,North,0,0.0,0.0,52,0.00,,,0.00,meteo_script,2013-04-26 02:05:00,
2013-04-25 22:10:00,48.3,31.5,30.29,North,0,0.0,0.0,52,0.00,,,0.00,meteo_script,2013-04-26 02:10:00,
2013-04-25 22:20:00,47.8,31.0,30.30,North,0,0.0,0.0,52,0.00,,,0.00,meteo_script,2013-04-26 02:20:00,
2013-04-25 22:25:00,47.4,31.6,30.30,North,0,0.0,0.0,54,0.00,,,0.00,meteo_script,2013-04-26 02:25:00,
2013-04-25 22:30:00,47.0,31.7,30.30,North,0,0.0,0.0,55,0.00,,,0.00,meteo_script,2013-04-26 02:30:00,
2013-04-25 22:35:00,46.7,31.0,30.30,North,0,0.0,0.0,54,0.00,,,0.00,meteo_script,2013-04-26 02:35:00,
2013-04-25 22:45:00,46.3,31.9,30.30,North,0,0.0,0.0,57,0.00,,,0.00,meteo_script,2013-04-26 02:45:00,
2013-04-25 22:50:00,46.1,33.0,30.31,North,0,0.0,0.0,60,0.00,,,0.00,meteo_script,2013-04-26 02:50:00,
2013-04-25 23:00:00,45.7,32.6,30.31,North,0,0.0,0.0,60,0.00,,,0.00,meteo_script,2013-04-26 03:00:00,
2013-04-25 23:05:00,45.7,32.6,30.31,North,0,0.0,0.0,60,0.00,,,0.00,meteo_script,2013-04-26 03:05:00,
2013-04-25 23:10:00,45.6,32.2,30.31,North,0,0.0,0.0,59,0.00,,,0.00,meteo_script,2013-04-26 03:10:00,
2013-04-25 23:20:00,45.5,32.4,30.32,North,0,0.0,0.0,60,0.00,,,0.00,meteo_script,2013-04-26 03:20:00,
2013-04-25 23:25:00,45.4,31.9,30.32,North,0,0.0,0.0,59,0.00,,,0.00,meteo_script,2013-04-26 03:25:00,
2013-04-25 23:30:00,45.3,31.8,30.32,North,0,0.0,0.0,59,0.00,,,0.00,meteo_script,2013-04-26 03:30:00,
2013-04-25 23:40:00,44.9,31.6,30.32,North,0,0.0,0.0,59,0.00,,,0.00,meteo_script,2013-04-26 03:40:00,
2013-04-25 23:50:00,45.0,32.0,30.33,North,0,0.0,0.0,60,0.00,,,0.00,meteo_script,2013-04-26 03:50:00,
2013-04-25 23:55:00,44.7,31.7,30.33,North,0,0.0,0.0,60,0.00,,,0.00,meteo_script,2013-04-26 03:55:00,